Location: Albuquerque Trailhead
(34.7934°N, 106.3736°W)
Time: 03:42:38
(UTC+00:00)

Lacrosse 5 rocket - Pass Details

Date: 20 June 2021
Orbit: 460 x 634 km, 57.0° (Epoch: 29 July)

Event Time Altitude Azimuth Distance (km) Brightness Sun altitude
Rises 02:46:52 0° 205° (SSW) 2,608 4.7 -5.2°
Reaches altitude 10° 02:49:09 10° 199° (SSW) 1,697 3.7 -5.6°
Maximum altitude 02:52:47 46° 126° (SE) 661 1.3 -6.2°
Drops below altitude 10° 02:56:18 10° 52° (NE) 1,635 3.6 -6.8°
Sets 02:58:28 0° 46° (NE) 2,500 4.6 -7.2°
